International Skating Union - Official Site

ISU World Cup Harbin
November 11-13, 2016

Draw | Lap Times | Index | World Cup

Referee: Trevis  BOYD  (CAN)
Starter: Yong-Seok  OH  (KOR)
StartTime: EndTime: Air Temp: Ice Temp: Humidity:
18:12 19:00 13.2℃ -6.7℃ 45.0%
Result 3000m Ladies Division A
Rankings as of Nov 13 2016 1:28PM
Rank: No.: Name: Nation: Time: Behind: Points:
1 229 Martina  Sábliková CZE CZE 4:08.26200m - 20.50 - (20.5)
600m - 51.68 - (31.1)
1000m - 1:23.70 - (32.0)
1400m - 1:56.06 - (32.3)
1800m - 2:28.56 - (32.5)
2200m - 3:01.57 - (33.0)
2600m - 3:34.86 - (33.2)
3000m - 4:08.26 - (33.4)
100
2 264 Marije  Joling NED NED 4:09.40200m - 20.41 - (20.4)
600m - 52.68 - (32.2)
1000m - 1:24.70 - (32.0)
1400m - 1:56.79 - (32.0)
1800m - 2:29.34 - (32.5)
2200m - 3:01.94 - (32.6)
2600m - 3:35.13 - (33.1)
3000m - 4:09.40 - (34.2)
1.14 80
3 205 Ivanie  Blondin CAN CAN 4:09.78200m - 20.62 - (20.6)
600m - 52.65 - (32.0)
1000m - 1:25.33 - (32.6)
1400m - 1:57.84 - (32.5)
1800m - 2:30.41 - (32.5)
2200m - 3:03.14 - (32.7)
2600m - 3:36.09 - (32.9)
3000m - 4:09.78 - (33.6)
1.52 70
4 261 Antoinette  de Jong NED NED 4:10.03200m - 20.18 - (20.1)
600m - 51.52 - (31.3)
1000m - 1:23.35 - (31.8)
1400m - 1:55.59 - (32.2)
1800m - 2:28.31 - (32.7)
2200m - 3:01.74 - (33.4)
2600m - 3:35.59 - (33.8)
3000m - 4:10.03 - (34.4)
1.77 60
5 234 Bente  Kraus GER GER 4:11.47200m - 20.73 - (20.7)
600m - 52.70 - (31.9)
1000m - 1:25.11 - (32.4)
1400m - 1:57.82 - (32.7)
1800m - 2:30.97 - (33.1)
2200m - 3:04.34 - (33.3)
2600m - 3:37.85 - (33.5)
3000m - 4:11.47 - (33.6)
3.21 50
6 271 Melissa  Wijfje NED NED 4:11.63200m - 20.38 - (20.3)
600m - 51.79 - (31.4)
1000m - 1:24.42 - (32.6)
1400m - 1:57.10 - (32.6)
1800m - 2:29.85 - (32.7)
2200m - 3:02.79 - (32.9)
2600m - 3:36.57 - (33.7)
3000m - 4:11.63 - (35.0)
3.37 45
7 272 Ireen  Wüst NED NED 4:11.76200m - 19.58 - (19.5)
600m - 50.88 - (31.3)
1000m - 1:22.95 - (32.0)
1400m - 1:55.40 - (32.4)
1800m - 2:27.75 - (32.3)
2200m - 3:01.43 - (33.6)
2600m - 3:36.21 - (34.7)
3000m - 4:11.76 - (35.5)
3.50 40
8 289 Anna  Yurakova RUS RUS 4:12.91 (2) 200m - 20.61 - (20.6)
600m - 52.85 - (32.2)
1000m - 1:25.30 - (32.4)
1400m - 1:58.27 - (32.9)
1800m - 2:30.97 - (32.7)
2200m - 3:04.23 - (33.2)
2600m - 3:38.20 - (33.9)
3000m - 4:12.91 - (34.7)
4.65 35
9 212 Isabelle  Weidemann CAN CAN 4:12.91 (7) 200m - 21.08 - (21.0)
600m - 52.89 - (31.8)
1000m - 1:25.27 - (32.3)
1400m - 1:58.15 - (32.8)
1800m - 2:30.89 - (32.7)
2200m - 3:04.24 - (33.3)
2600m - 3:38.24 - (34.0)
3000m - 4:12.91 - (34.6)
4.65 30
10 247 Miho  Takagi JPN JPN 4:14.16200m - 20.09 - (20.0)
600m - 52.48 - (32.3)
1000m - 1:25.01 - (32.5)
1400m - 1:57.58 - (32.5)
1800m - 2:30.25 - (32.6)
2200m - 3:03.59 - (33.3)
2600m - 3:37.98 - (34.3)
3000m - 4:14.16 - (36.1)
5.90 25
11 244 Misaki  Oshigiri JPN JPN 4:14.54200m - 20.10 - (20.1)
600m - 51.77 - (31.6)
1000m - 1:23.95 - (32.1)
1400m - 1:56.96 - (33.0)
1800m - 2:30.42 - (33.4)
2200m - 3:04.72 - (34.3)
2600m - 3:39.38 - (34.6)
3000m - 4:14.54 - (35.1)
6.28 21
12 243 Fuyo  Matsuoka JPN JPN 4:14.59200m - 21.10 - (21.1)
600m - 53.56 - (32.4)
1000m - 1:26.80 - (33.2)
1400m - 2:00.26 - (33.4)
1800m - 2:33.52 - (33.2)
2200m - 3:06.99 - (33.4)
2600m - 3:40.75 - (33.7)
3000m - 4:14.59 - (33.8)
6.33 18
13 284 Olga  Graf RUS RUS 4:15.93200m - 21.10 - (21.1)
600m - 53.22 - (32.1)
1000m - 1:26.01 - (32.7)
1400m - 1:59.12 - (33.1)
1800m - 2:32.81 - (33.6)
2200m - 3:06.95 - (34.1)
2600m - 3:41.42 - (34.4)
3000m - 4:15.93 - (34.5)
7.67 16
14 288 Natalya  Voronina RUS RUS 4:16.87200m - 20.24 - (20.2)
600m - 51.84 - (31.6)
1000m - 1:24.34 - (32.5)
1400m - 1:57.74 - (33.4)
1800m - 2:31.76 - (34.0)
2200m - 3:06.07 - (34.3)
2600m - 3:41.30 - (35.2)
3000m - 4:16.87 - (35.5)
8.61 14
15 274 Ida  Njåtun NOR NOR 4:20.42200m - 20.47 - (20.4)
600m - 53.13 - (32.6)
1000m - 1:25.90 - (32.7)
1400m - 1:59.15 - (33.2)
1800m - 2:33.00 - (33.8)
2200m - 3:08.12 - (35.1)
2600m - 3:43.92 - (35.8)
3000m - 4:20.42 - (36.5)
12.16 12
16 259 Carlijn  Achtereekte NED NED 4:21.75200m - 20.27 - (20.2)
600m - 52.26 - (31.9)
1000m - 1:25.53 - (33.2)
1400m - 1:59.51 - (33.9)
1800m - 2:34.20 - (34.6)
2200m - 3:09.68 - (35.4)
2600m - 3:45.85 - (36.1)
3000m - 4:21.75 - (35.9)
13.49 10